DW7780 Weather Reports


time (UTC)temp
C
wind
direction
speed
KPH
gust
KPH
rain 1hr
cm
rain 24hr
cm
rain mn
cm
humidity
%
barometer
mb
20260903174552 27 0 1.6 6.4 0.00 1.52 1.47 73 1013.8
20260903173039 27 0 0.0 8.0 0.00 1.52 1.47 76 1014.0
20260903171535 27 0 1.6 6.4 0.00 1.52 1.47 79 1014.2
20260903170042 26 0 0.0 12.9 0.00 1.52 1.47 81 1014.2
20260903164538 26 0 0.0 4.8 0.00 1.52 1.47 84 1014.8
20260903163032 25 0 0.0 6.4 0.00 1.52 1.47 84 1014.9
20260903161531 25 0 0.0 1.6 0.00 1.52 1.47 86 1015.3
20260903160035 25 0 0.0 6.4 0.00 1.52 1.47 87 1015.4
20260903154535 25 0 0.0 6.4 0.00 1.52 1.47 86 1015.5
20260903153036 25 0 0.0 6.4 0.00 1.52 1.47 89 1015.8
20260903151542 25 234 0.0 4.8 0.00 1.52 1.47 90 1015.8
20260903150034 23 0 0.0 6.4 0.00 1.52 1.47 92 1015.6
20260903144534 23 0 0.0 4.8 0.00 1.52 1.47 94 1015.8
20260903143037 22 0 0.0 4.8 0.00 1.52 1.47 97 1016.0
20260903141535 22 0 0.0 4.8 0.00 1.52 1.47 97 1015.7
20260903140035 22 0 0.0 3.2 0.00 1.52 1.47 98 1015.6
20260903134532 21 0 0.0 1.6 0.00 1.52 1.47 98 1015.3
20260903133033 21 0 0.0 0.0 0.00 1.52 1.47 98 1015.5
20260903131537 21 0 0.0 0.0 0.00 1.52 1.47 98 1015.5
20260903130030 21 0 0.0 0.0 0.00 1.52 1.47 98 1015.9
20260903124539 21 0 0.0 0.0 0.00 1.52 1.47 98 1015.7
20260903123036 21 0 0.0 3.2 0.00 1.52 1.47 98 1015.6
20260903121530 20 0 0.0 3.2 0.00 1.52 1.47 98 1015.4
20260903120031 20 0 0.0 3.2 0.00 1.52 1.47 98 1015.2
20260903114534 20 0 0.0 3.2 0.00 1.52 1.47 98 1014.5
20260903113033 20 0 1.6 4.8 0.00 1.52 1.47 98 1015.5
20260903111555 20 0 0.0 4.8 0.00 1.52 1.47 98 1015.7
20260903110036 20 0 0.0 4.8 0.00 1.52 1.47 98 1016.1
20260903104547 20 0 0.0 0.0 0.00 1.55 1.47 98 1016.2
20260903103032 20 220 0.0 4.8 0.03 1.55 1.47 98 1016.1
20260903101539 20 0 0.0 0.0 0.05 1.55 1.47 98 1015.9
20260903100036 20 0 0.0 1.6 0.13 1.55 1.47 98 1016.1
20260903094532 20 0 0.0 1.6 0.20 1.55 1.47 98 1015.4
20260903093039 20 0 0.0 4.8 0.25 1.52 1.45 98 1015.9
20260903091534 20 0 0.0 8.0 0.33 1.47 1.40 98 1015.7
20260903090033 20 0 0.0 3.2 0.38 1.42 1.32 98 1015.9
20260903084536 20 0 0.0 4.8 0.36 1.32 1.27 98 1016.8
20260903083033 20 0 0.0 0.0 0.28 1.27 1.19 98 1017.6
20260903081534 20 0 0.0 0.0 0.15 1.14 1.07 98 1017.1
20260903080033 20 0 0.0 0.0 0.05 1.04 0.97 98 1017.9
20260903074537 20 0 0.0 0.0 0.00 0.99 0.91 98 1017.7
20260903073042 20 0 0.0 0.0 0.08 0.99 0.91 98 1016.8
20260903071535 20 0 0.0 0.0 0.20 0.99 0.91 98 1016.8
20260903070039 20 0 0.0 0.0 0.23 0.99 0.91 98 1016.9
20260903064534 20 0 0.0 0.0 0.28 0.99 0.91 98 1016.7
20260903063035 20 0 0.0 0.0 0.51 0.91 0.84 97 1017.3
20260903061551 20 0 0.0 8.0 0.58 0.79 0.71 97 1016.9
20260903060034 20 269 0.0 6.4 0.66 0.76 0.69 97 1017.3
20260903054534 20 0 0.0 0.0 0.64 0.71 0.64 97 1017.4
20260903053034 20 0 0.0 6.4 0.30 0.38 0.30 98 1019.0
20260903051534 20 0 0.0 0.0 0.13 0.20 0.13 97 1018.9
20260903050035 20 0 0.0 0.0 0.00 0.08 0.00 97 1018.5
20260903044531 20 0 0.0 1.6 0.03 0.08 0.00 97 1018.5
20260903043037 20 0 0.0 0.0 0.03 0.08 0.00 97 1018.5
20260903041539 20 0 0.0 0.0 0.03 0.08 0.00 97 1018.5
20260903040036 20 0 0.0 0.0 0.03 0.08 0.00 97 1018.7
20260903034533 20 0 0.0 0.0 0.00 0.05 0.05 97 1018.9
20260903033031 20 0 0.0 0.0 0.00 0.05 0.05 97 1018.9
20260903031534 20 0 0.0 0.0 0.00 0.05 0.05 97 1018.6
20260903024535 20 0 0.0 3.2 0.00 0.05 0.05 97 1018.2
20260903023034 20 0 0.0 0.0 0.00 0.05 0.05 97 1018.5
20260903021535 20 0 0.0 1.6 0.00 0.05 0.05 97 1018.6
20260903020033 20 0 0.0 4.8 0.00 0.05 0.05 97 1018.5
20260903014533 20 0 0.0 3.2 0.00 0.05 0.05 97 1018.4
20260903013041 20 0 0.0 6.4 0.00 0.05 0.05 97 1018.4
20260903011534 20 0 0.0 4.8 0.00 0.05 0.05 97 1018.4
20260903010036 20 0 0.0 0.0 0.00 0.05 0.05 97 1018.8
20260903004544 20 0 0.0 0.0 0.00 0.46 0.05 97 1018.8
20260903003038 20 0 0.0 6.4 0.00 0.46 0.05 97 1018.6
20260903001534 20 0 0.0 6.4 0.00 0.46 0.05 97 1018.5
20260903000037 20 0 0.0 3.2 0.00 0.46 0.05 97 1018.3
20260902234535 20 0 0.0 8.0 0.00 0.46 0.05 97 1018.3
20260902233034 20 0 0.0 6.4 0.00 0.46 0.05 97 1018.3
20260902231537 20 0 0.0 1.6 0.03 0.46 0.05 97 1018.2
20260902230033 20 0 0.0 4.8 0.03 0.46 0.05 97 1018.2
20260902224550 20 0 0.0 6.4 0.03 0.46 0.05 96 1018.4
20260902223046 20 74 0.0 1.6 0.03 0.46 0.05 96 1018.6
20260902221543 20 0 0.0 3.2 0.00 0.43 0.03 96 1018.8
20260902220051 21 0 0.0 6.4 0.00 0.43 0.03 96 1019.0
20260902214534 21 0 0.0 0.0 0.00 0.43 0.03 96 1018.9
20260902213030 21 0 0.0 0.0 0.00 0.43 0.03 96 1018.7
20260902211532 21 0 0.0 3.2 0.00 0.43 0.03 96 1018.5
20260902210031 21 0 0.0 9.7 0.00 0.43 0.03 96 1018.5
20260902204534 21 0 0.0 0.0 0.00 0.43 0.03 97 1018.5
20260902203042 21 0 0.0 6.4 0.00 0.43 0.03 97 1018.5
20260902201547 21 0 0.0 9.7 0.00 0.43 0.03 97 1018.6
20260902200031 21 0 1.6 8.0 0.00 0.43 0.03 97 1018.6
20260902194535 21 94 0.0 9.7 0.00 0.43 0.03 97 1018.5
20260902193041 21 0 0.0 0.0 0.00 0.43 0.03 97 1018.9
20260902191534 21 0 0.0 0.0 0.00 0.43 0.03 97 1019.1
20260902190034 20 0 0.0 0.0 0.00 0.43 0.03 97 1019.4
20260902184534 20 0 0.0 0.0 0.00 0.43 0.03 96 1019.5
20260902183034 20 0 0.0 0.0 0.00 0.43 0.03 97 1019.6
20260902181536 20 0 0.0 0.0 0.00 0.43 0.03 97 1019.8
20260902180036 20 0 0.0 0.0 0.00 0.43 0.03 96 1019.8